,,Stat6,,Stat2,,Stat8,,Stat9,,Stat10,,Wind1,,Wind1,
time,status,PA1M_AVG,status,PR1M_SUM,status,RH1M_AVG,status,SR1M_AVG,status,TA1M_AVG,status,W1dAve1m,status,W1sAve1m,
2008-08-04, 00:00:00,VALID,918.254,VALID,0,VALID,100,VALID,0,VALID,19.7822,VALID,17,VALID,0.205903,
2008-08-04, 00:01:00,VALID,918.255,VALID,0,VALID,100,VALID,0,VALID,19.7664,VALID,4,VALID,0.246094,
2008-08-04, 00:02:00,VALID,918.254,VALID,0,VALID,100,VALID,0.0169808,VALID,19.7432,VALID,4,VALID,0.0364583,
2008-08-04, 00:03:00,VALID,918.247,VALID,0,VALID,100,VALID,-0.0169808,VALID,19.7367,VALID,3,VALID,0.119336,
2008-08-04, 00:04:00,VALID,918.229,VALID,0,VALID,100,VALID,0.0169808,VALID,19.7208,VALID,359,VALID,0,
2008-08-04, 00:05:00,VALID,918.218,VALID,0,VALID,100,VALID,0.0169808,VALID,19.6973,VALID,358,VALID,0,
2008-08-04, 00:06:00,VALID,918.201,VALID,0,VALID,100,VALID,0.0339617,VALID,19.6589,VALID,358,VALID,0,
2008-08-04, 00:07:00,VALID,918.197,VALID,0,VALID,100,VALID,0.0169808,VALID,19.6489,VALID,358,VALID,0,
2008-08-04, 00:08:00,VALID,918.191,VALID,0,VALID,100,VALID,0.0339617,VALID,19.6459,VALID,358,VALID,0,
2008-08-04, 00:09:00,VALID,918.193,VALID,0,VALID,100,VALID,0.0169808,VALID,19.6392,VALID,358,VALID,0,
2008-08-04, 00:10:00,VALID,918.183,VALID,0,VALID,100,VALID,0,VALID,19.6234,VALID,358,VALID,0,
2008-08-04, 00:11:00,VALID,918.2,VALID,0,VALID,100,VALID,-0.0169808,VALID,19.601,VALID,358,VALID,0,
2008-08-04, 00:12:00,VALID,918.193,VALID,0,VALID,100,VALID,0,VALID,19.5715,VALID,358,VALID,0,
2008-08-04, 00:13:00,VALID,918.208,VALID,0,VALID,100,VALID,0,VALID,19.5356,VALID,358,VALID,0,
2008-08-04, 00:14:00,VALID,918.194,VALID,0,VALID,100,VALID,0.0169808,VALID,19.5161,VALID,358,VALID,0,
2008-08-04, 00:15:00,VALID,918.187,VALID,0,VALID,100,VALID,-0.0169808,VALID,19.4907,VALID,358,VALID,0,
2008-08-04, 00:16:00,VALID,918.161,VALID,0,VALID,100,VALID,-0.0169808,VALID,19.4063,VALID,358,VALID,0,
2008-08-04, 00:17:00,VALID,918.16,VALID,0,VALID,100,VALID,0,VALID,19.3449,VALID,358,VALID,0,
2008-08-04, 00:18:00,VALID,918.126,VALID,0,VALID,100,VALID,-0.0169808,VALID,19.3217,VALID,358,VALID,0,
2008-08-04, 00:19:00,VALID,918.132,VALID,0,VALID,100,VALID,-0.0339617,VALID,19.312,VALID,358,VALID,0,
2008-08-04, 00:20:00,VALID,918.141,VALID,0,VALID,100,VALID,-0.0169808,VALID,19.3282,VALID,358,VALID,0,
2008-08-04, 00:21:00,VALID,918.163,VALID,0,VALID,100,VALID,-0.0339617,VALID,19.3315,VALID,358,VALID,0,
2008-08-04, 00:22:00,VALID,918.187,VALID,0,VALID,100,VALID,-0.0169808,VALID,19.3118,VALID,358,VALID,0,
2008-08-04, 00:23:00,VALID,918.184,VALID,0,VALID,100,VALID,-0.0169808,VALID,19.2833,VALID,280,VALID,0,
2008-08-04, 00:24:00,VALID,918.175,VALID,0,VALID,100,VALID,0.0339617,VALID,19.2663,VALID,249,VALID,0,
2008-08-04, 00:25:00,VALID,918.175,VALID,0,VALID,100,VALID,0.0169808,VALID,19.2793,VALID,249,VALID,0,
2008-08-04, 00:26:00,VALID,918.165,VALID,0,VALID,100,VALID,0,VALID,19.2728,VALID,249,VALID,0,
2008-08-04, 00:27:00,VALID,918.153,VALID,0,VALID,100,VALID,0,VALID,19.2731,VALID,249,VALID,0,
2008-08-04, 00:28:00,VALID,918.141,VALID,0,VALID,100,VALID,0,VALID,19.2599,VALID,249,VALID,0,
2008-08-04, 00:29:00,VALID,918.121,VALID,0,VALID,100,VALID,0,VALID,19.2696,VALID,249,VALID,0,
2008-08-04, 00:30:00,VALID,918.109,VALID,0,VALID,100,VALID,0.0339617,VALID,19.2661,VALID,249,VALID,0,
2008-08-04, 00:31:00,VALID,918.079,VALID,0,VALID,100,VALID,0.0169808,VALID,19.2696,VALID,249,VALID,0,
2008-08-04, 00:32:00,VALID,918.073,VALID,0,VALID,100,VALID,0,VALID,19.2534,VALID,249,VALID,0,
2008-08-04, 00:33:00,VALID,918.066,VALID,0,VALID,100,VALID,0.0679233,VALID,19.201,VALID,249,VALID,0,
2008-08-04, 00:34:00,VALID,918.066,VALID,0,VALID,100,VALID,-0.0339617,VALID,19.1658,VALID,249,VALID,0,
2008-08-04, 00:35:00,VALID,918.057,VALID,0,VALID,100,VALID,-0.0849042,VALID,19.15,VALID,249,VALID,0,
2008-08-04, 00:36:00,VALID,918.056,VALID,0,VALID,100,VALID,-0.0509425,VALID,19.1505,VALID,249,VALID,0,
2008-08-04, 00:37:00,VALID,918.034,VALID,0,VALID,100,VALID,-0.0849042,VALID,19.1431,VALID,249,VALID,0,
2008-08-04, 00:38:00,VALID,918.034,VALID,0,VALID,100,VALID,-0.0849042,VALID,19.1341,VALID,249,VALID,0,
2008-08-04, 00:39:00,VALID,918.018,VALID,0,VALID,100,VALID,-0.0509425,VALID,19.1401,VALID,250,VALID,0,
2008-08-04, 00:40:00,VALID,917.987,VALID,0,VALID,100,VALID,-0.101885,VALID,19.1792,VALID,305,VALID,0,
2008-08-04, 00:41:00,VALID,917.964,VALID,0,VALID,100,VALID,-0.0849042,VALID,19.1955,VALID,305,VALID,0,
2008-08-04, 00:42:00,VALID,917.944,VALID,0,VALID,100,VALID,-0.0849042,VALID,19.2286,VALID,305,VALID,0,
2008-08-04, 00:43:00,VALID,917.929,VALID,0,VALID,100,VALID,-0.0509425,VALID,19.2441,VALID,305,VALID,0,
2008-08-04, 00:44:00,VALID,917.918,VALID,0,VALID,100,VALID,-0.0339617,VALID,19.2506,VALID,305,VALID,0,
2008-08-04, 00:45:00,VALID,917.938,VALID,0,VALID,100,VALID,-0.0679233,VALID,19.2244,VALID,305,VALID,0,
2008-08-04, 00:46:00,VALID,917.95,VALID,0,VALID,100,VALID,-0.0509425,VALID,19.182,VALID,305,VALID,0,
2008-08-04, 00:47:00,VALID,917.971,VALID,0,VALID,100,VALID,-0.0509425,VALID,19.1496,VALID,305,VALID,0,
2008-08-04, 00:48:00,VALID,917.957,VALID,0,VALID,100,VALID,-0.0849042,VALID,19.1179,VALID,305,VALID,0,
2008-08-04, 00:49:00,VALID,917.934,VALID,0,VALID,100,VALID,-0.0509425,VALID,19.0917,VALID,305,VALID,0,
2008-08-04, 00:50:00,VALID,917.913,VALID,0,VALID,100,VALID,-0.0169808,VALID,19.0458,VALID,305,VALID,0,
2008-08-04, 00:51:00,VALID,917.889,VALID,0,VALID,100,VALID,-0.0169808,VALID,18.9649,VALID,305,VALID,0,
2008-08-04, 00:52:00,VALID,917.878,VALID,0,VALID,100,VALID,-0.0679233,VALID,18.8806,VALID,305,VALID,0,
2008-08-04, 00:53:00,VALID,917.867,VALID,0,VALID,100,VALID,-0.0509425,VALID,18.809,VALID,305,VALID,0,
2008-08-04, 00:54:00,VALID,917.866,VALID,0,VALID,100,VALID,-0.0679233,VALID,18.7541,VALID,305,VALID,0,
2008-08-04, 00:55:00,VALID,917.871,VALID,0,VALID,100,VALID,-0.0849042,VALID,18.7254,VALID,305,VALID,0,
2008-08-04, 00:56:00,VALID,917.876,VALID,0,VALID,100,VALID,-0.101885,VALID,18.7216,VALID,305,VALID,0,
2008-08-04, 00:57:00,VALID,917.881,VALID,0,VALID,100,VALID,-0.0849042,VALID,18.7087,VALID,305,VALID,0,
2008-08-04, 00:58:00,VALID,917.882,VALID,0,VALID,100,VALID,-0.101885,VALID,18.6987,VALID,305,VALID,0,
2008-08-04, 00:59:00,VALID,917.887,VALID,0,VALID,100,VALID,-0.0679233,VALID,18.6966,VALID,305,VALID,0,
2008-08-04, 01:00:00,VALID,917.879,VALID,0,VALID,100,VALID,-0.0509425,VALID,18.6443,VALID,305,VALID,0,
2008-08-04, 01:01:00,VALID,917.852,VALID,0,VALID,100,VALID,-0.0679233,VALID,18.6051,VALID,305,VALID,0,
2008-08-04, 01:02:00,VALID,917.83,VALID,0,VALID,100,VALID,-0.0169808,VALID,18.6014,VALID,305,VALID,0,
2008-08-04, 01:03:00,VALID,917.812,VALID,0,VALID,100,VALID,-0.0679233,VALID,18.5919,VALID,305,VALID,0,
2008-08-04, 01:04:00,VALID,917.798,VALID,0,VALID,100,VALID,-0.0509425,VALID,18.6306,VALID,305,VALID,0,
2008-08-04, 01:05:00,VALID,917.789,VALID,0,VALID,100,VALID,-0.0849042,VALID,18.6832,VALID,305,VALID,0,
2008-08-04, 01:06:00,VALID,917.781,VALID,0,VALID,100,VALID,-0.0679233,VALID,18.6635,VALID,305,VALID,0,
2008-08-04, 01:07:00,VALID,917.767,VALID,0,VALID,100,VALID,-0.0509425,VALID,18.6211,VALID,305,VALID,0,
2008-08-04, 01:08:00,VALID,917.757,VALID,0,VALID,100,VALID,-0.0679233,VALID,18.5986,VALID,305,VALID,0,
2008-08-04, 01:09:00,VALID,917.73,VALID,0,VALID,100,VALID,-0.0509425,VALID,18.5787,VALID,305,VALID,0,
2008-08-04, 01:10:00,VALID,917.721,VALID,0,VALID,100,VALID,-0.0679233,VALID,18.5532,VALID,305,VALID,0,
2008-08-04, 01:11:00,VALID,917.717,VALID,0,VALID,100,VALID,-0.0849042,VALID,18.5428,VALID,305,VALID,0,
2008-08-04, 01:12:00,VALID,917.685,VALID,0,VALID,100,VALID,-0.0509425,VALID,18.5857,VALID,305,VALID,0,
2008-08-04, 01:13:00,VALID,917.655,VALID,0,VALID,100,VALID,-0.0849042,VALID,18.6051,VALID,305,VALID,0,
2008-08-04, 01:14:00,VALID,917.607,VALID,0,VALID,100,VALID,-0.101885,VALID,18.6248,VALID,305,VALID,0,
2008-08-04, 01:15:00,VALID,917.582,VALID,0,VALID,100,VALID,-0.101885,VALID,18.5954,VALID,305,VALID,0,
2008-08-04, 01:16:00,VALID,917.55,VALID,0,VALID,100,VALID,-0.101885,VALID,18.5697,VALID,305,VALID,0,
2008-08-04, 01:17:00,VALID,917.534,VALID,0,VALID,100,VALID,-0.0679233,VALID,18.5141,VALID,305,VALID,0,
2008-08-04, 01:18:00,VALID,917.53,VALID,0,VALID,100,VALID,-0.0509425,VALID,18.4557,VALID,305,VALID,0,
2008-08-04, 01:19:00,VALID,917.535,VALID,0,VALID,100,VALID,-0.0679233,VALID,18.3776,VALID,305,VALID,0,
2008-08-04, 01:20:00,VALID,917.555,VALID,0,VALID,100,VALID,-0.0339617,VALID,18.319,VALID,305,VALID,0,
2008-08-04, 01:21:00,VALID,917.551,VALID,0,VALID,100,VALID,-0.101885,VALID,18.2514,VALID,305,VALID,0,
2008-08-04, 01:22:00,VALID,917.57,VALID,0,VALID,100,VALID,-0.0679233,VALID,18.2058,VALID,305,VALID,0,
2008-08-04, 01:23:00,VALID,917.552,VALID,0,VALID,100,VALID,-0.0169808,VALID,18.1766,VALID,305,VALID,0,
2008-08-04, 01:24:00,VALID,917.553,VALID,0,VALID,100,VALID,0,VALID,18.1472,VALID,305,VALID,0,
2008-08-04, 01:25:00,VALID,917.543,VALID,0,VALID,100,VALID,-0.0169808,VALID,18.1082,VALID,251,VALID,0,
2008-08-04, 01:26:00,VALID,917.519,VALID,0,VALID,100,VALID,-0.0169808,VALID,18.0793,VALID,236,VALID,0,
2008-08-04, 01:27:00,VALID,917.504,VALID,0,VALID,100,VALID,-0.0509425,VALID,18.0791,VALID,189,VALID,0.0916193,
2008-08-04, 01:28:00,VALID,917.483,VALID,0,VALID,100,VALID,-0.0509425,VALID,18.1309,VALID,177,VALID,0.529688,
2008-08-04, 01:29:00,VALID,917.471,VALID,0,VALID,100,VALID,-0.0679233,VALID,18.1699,VALID,171,VALID,0.596418,
2008-08-04, 01:30:01,VALID,917.47,VALID,0,VALID,100,VALID,-0.0169808,VALID,18.1766,VALID,170,VALID,0.441992,
2008-08-04, 01:31:01,VALID,917.501,VALID,0,VALID,100,VALID,-0.0679233,VALID,18.1504,VALID,169,VALID,0.524858,
2008-08-04, 01:32:01,VALID,917.536,VALID,0,VALID,100,VALID,-0.0339617,VALID,18.1441,VALID,169,VALID,0.568164,
2008-08-04, 01:33:00,VALID,917.566,VALID,0,VALID,100,VALID,-0.0509425,VALID,18.124,VALID,169,VALID,0.75,
2008-08-04, 01:34:00,VALID,917.601,VALID,0,VALID,100,VALID,-0.0679233,VALID,18.1152,VALID,169,VALID,0.993096,
2008-08-04, 01:35:01,VALID,917.605,VALID,0,VALID,100,VALID,-0.0849042,VALID,18.0934,VALID,167,VALID,0.86441,
2008-08-04, 01:36:00,VALID,917.601,VALID,0,VALID,100,VALID,-0.0679233,VALID,18.0802,VALID,164,VALID,0.688715,
2008-08-04, 01:37:01,VALID,917.603,VALID,0,VALID,100,VALID,-0.101885,VALID,18.0411,VALID,159,VALID,0.729992,
2008-08-04, 01:38:01,VALID,917.589,VALID,0,VALID,100,VALID,-0.101885,VALID,18.0316,VALID,151,VALID,0.710938,
2008-08-04, 01:39:01,VALID,917.573,VALID,0,VALID,100,VALID,-0.101885,VALID,18.0318,VALID,159,VALID,0.455031,
2008-08-04, 01:40:00,VALID,917.571,VALID,0,VALID,100,VALID,-0.0509425,VALID,18.0242,VALID,165,VALID,0.354469,
2008-08-04, 01:41:00,VALID,917.561,VALID,0,VALID,100,VALID,-0.101885,VALID,18.0441,VALID,165,VALID,0.44082,
2008-08-04, 01:42:00,VALID,917.565,VALID,0,VALID,100,VALID,-0.0849042,VALID,18.0733,VALID,165,VALID,0.331836,
2008-08-04, 01:43:01,VALID,917.558,VALID,0,VALID,100,VALID,-0.101885,VALID,18.1094,VALID,165,VALID,0,
2008-08-04, 01:44:00,VALID,917.538,VALID,0,VALID,100,VALID,-0.101885,VALID,18.155,VALID,165,VALID,0,
2008-08-04, 01:45:01,VALID,917.534,VALID,0,VALID,100,VALID,-0.118866,VALID,18.1773,VALID,162,VALID,0,
2008-08-04, 01:46:00,VALID,917.53,VALID,0,VALID,100,VALID,-0.0849042,VALID,18.1898,VALID,158,VALID,0,
2008-08-04, 01:47:00,VALID,917.511,VALID,0,VALID,100,VALID,-0.0849042,VALID,18.1965,VALID,153,VALID,0.858803,
2008-08-04, 01:48:01,VALID,917.496,VALID,0,VALID,100,VALID,-0.101885,VALID,18.1742,VALID,147,VALID,0.884266,
2008-08-04, 01:49:00,VALID,917.473,VALID,0,VALID,100,VALID,-0.101885,VALID,18.1773,VALID,147,VALID,0.638263,
2008-08-04, 01:50:00,VALID,917.45,VALID,0,VALID,100,VALID,-0.0849042,VALID,18.1872,VALID,146,VALID,0.689787,
2008-08-04, 01:51:00,VALID,917.418,VALID,0,VALID,100,VALID,-0.0849042,VALID,18.2034,VALID,153,VALID,1.02507,
2008-08-04, 01:52:00,VALID,917.421,VALID,0,VALID,100,VALID,-0.0849042,VALID,18.2618,VALID,155,VALID,0.888765,
2008-08-04, 01:53:00,VALID,917.432,VALID,0,VALID,100,VALID,-0.101885,VALID,18.3033,VALID,152,VALID,0.670058,
2008-08-04, 01:54:00,VALID,917.451,VALID,0,VALID,100,VALID,-0.0849042,VALID,18.3322,VALID,167,VALID,0.730378,
2008-08-04, 01:55:00,VALID,917.468,VALID,0,VALID,100,VALID,-0.101885,VALID,18.3586,VALID,155,VALID,0.235085,
2008-08-04, 01:56:00,VALID,917.481,VALID,0,VALID,100,VALID,-0.0679233,VALID,18.385,VALID,162,VALID,0.320122,
2008-08-04, 01:57:00,VALID,917.458,VALID,0,VALID,100,VALID,-0.101885,VALID,18.4013,VALID,168,VALID,0.675586,
2008-08-04, 01:58:00,VALID,917.433,VALID,0,VALID,100,VALID,-0.0509425,VALID,18.42,VALID,164,VALID,1.01432,
2008-08-04, 01:59:00,VALID,917.402,VALID,0,VALID,100,VALID,-0.0509425,VALID,18.4267,VALID,151,VALID,0.858842,
2008-08-04, 02:00:01,VALID,917.382,VALID,0,VALID,100,VALID,-0.0849042,VALID,18.4105,VALID,143,VALID,0.879906,
2008-08-04, 02:01:00,VALID,917.384,VALID,0,VALID,100,VALID,-0.0509425,VALID,18.4073,VALID,139,VALID,1.3375,
2008-08-04, 02:02:00,VALID,917.392,VALID,0,VALID,100,VALID,-0.0339617,VALID,18.4168,VALID,135,VALID,1.12251,
2008-08-04, 02:03:00,VALID,917.408,VALID,0,VALID,100,VALID,-0.0509425,VALID,18.427,VALID,150,VALID,0.837652,
2008-08-04, 02:04:00,VALID,917.426,VALID,0,VALID,100,VALID,-0.0679233,VALID,18.4073,VALID,153,VALID,0.765443,
2008-08-04, 02:05:01,VALID,917.448,VALID,0,VALID,100,VALID,-0.0679233,VALID,18.4008,VALID,165,VALID,0.759588,
2008-08-04, 02:06:01,VALID,917.433,VALID,0,VALID,100,VALID,-0.0849042,VALID,18.3948,VALID,166,VALID,0.751243,
2008-08-04, 02:07:00,VALID,917.403,VALID,0,VALID,100,VALID,-0.101885,VALID,18.3883,VALID,170,VALID,0.93532,
2008-08-04, 02:08:01,VALID,917.374,VALID,0,VALID,100,VALID,-0.0679233,VALID,18.3976,VALID,156,VALID,0.898633,
2008-08-04, 02:09:00,VALID,917.359,VALID,0,VALID,100,VALID,-0.0849042,VALID,18.3848,VALID,153,VALID,0.68641,
2008-08-04, 02:10:01,VALID,917.347,VALID,0,VALID,100,VALID,-0.0849042,VALID,18.3853,VALID,168,VALID,0.517485,
2008-08-04, 02:11:01,VALID,917.332,VALID,0,VALID,100,VALID,-0.0679233,VALID,18.3813,VALID,151,VALID,1.24255,
2008-08-04, 02:12:01,VALID,917.347,VALID,0,VALID,100,VALID,-0.0679233,VALID,18.3976,VALID,146,VALID,0.560724,
2008-08-04, 02:13:01,VALID,917.349,VALID,0,VALID,100,VALID,-0.0849042,VALID,18.4175,VALID,147,VALID,0.715451,
2008-08-04, 02:14:00,VALID,917.362,VALID,0,VALID,100,VALID,-0.0679233,VALID,18.4008,VALID,144,VALID,0.769245,
2008-08-04, 02:15:01,VALID,917.381,VALID,0,VALID,100,VALID,-0.101885,VALID,18.3908,VALID,134,VALID,0.493608,
2008-08-04, 02:16:01,VALID,917.384,VALID,0,VALID,100,VALID,-0.0849042,VALID,18.3848,VALID,142,VALID,0.430414,
2008-08-04, 02:17:01,VALID,917.37,VALID,0,VALID,100,VALID,-0.0679233,VALID,18.3649,VALID,134,VALID,0.545313,
2008-08-04, 02:18:01,VALID,917.347,VALID,0,VALID,100,VALID,-0.0849042,VALID,18.3619,VALID,135,VALID,0.892987,
2008-08-04, 02:19:01,VALID,917.309,VALID,0,VALID,100,VALID,-0.0339617,VALID,18.3552,VALID,138,VALID,0.810369,
2008-08-04, 02:20:01,VALID,917.268,VALID,0,VALID,100,VALID,0.0509425,VALID,18.3475,VALID,140,VALID,0.80506,
2008-08-04, 02:21:01,VALID,917.247,VALID,0,VALID,100,VALID,0.0169808,VALID,18.3278,VALID,132,VALID,0.0450149,
2008-08-04, 02:22:01,VALID,917.272,VALID,0,VALID,100,VALID,0.0169808,VALID,18.3123,VALID,130,VALID,0.0205305,
2008-08-04, 02:23:00,VALID,917.289,VALID,0,VALID,100,VALID,0.0509425,VALID,18.2954,VALID,136,VALID,0.217076,
2008-08-04, 02:24:00,VALID,917.308,VALID,0,VALID,100,VALID,0.0169808,VALID,18.2989,VALID,144,VALID,0.66441,
2008-08-04, 02:25:00,VALID,917.311,VALID,0,VALID,100,VALID,0.0169808,VALID,18.2919,VALID,144,VALID,0.538132,
2008-08-04, 02:26:00,VALID,917.293,VALID,0,VALID,100,VALID,0.0169808,VALID,18.3155,VALID,129,VALID,0.274325,
2008-08-04, 02:27:00,VALID,917.259,VALID,0,VALID,100,VALID,0.0169808,VALID,18.3146,VALID,148,VALID,0.397017,
2008-08-04, 02:28:00,VALID,917.253,VALID,0,VALID,100,VALID,0.0169808,VALID,18.3019,VALID,146,VALID,0.370617,
2008-08-04, 02:29:00,VALID,917.225,VALID,0,VALID,100,VALID,0.0339617,VALID,18.2824,VALID,150,VALID,1.05692,
2008-08-04, 02:30:00,VALID,917.207,VALID,0,VALID,100,VALID,0.0509425,VALID,18.2792,VALID,145,VALID,0.636719,
2008-08-04, 02:31:00,VALID,917.193,VALID,0,VALID,100,VALID,0.0679233,VALID,18.253,VALID,136,VALID,0.862827,
2008-08-04, 02:32:00,VALID,917.197,VALID,0,VALID,100,VALID,0.0679233,VALID,18.2597,VALID,140,VALID,0.795573,
2008-08-04, 02:33:00,VALID,917.203,VALID,0,VALID,100,VALID,0.0679233,VALID,18.2567,VALID,152,VALID,1.09473,
2008-08-04, 02:34:00,VALID,917.221,VALID,0,VALID,100,VALID,0.0169808,VALID,18.247,VALID,155,VALID,1.08285,
2008-08-04, 02:35:00,VALID,917.22,VALID,0,VALID,100,VALID,0.0169808,VALID,18.2537,VALID,141,VALID,0.976736,
2008-08-04, 02:36:00,VALID,917.224,VALID,0,VALID,100,VALID,0.0339617,VALID,18.2637,VALID,135,VALID,1.2043,
2008-08-04, 02:37:00,VALID,917.209,VALID,0,VALID,100,VALID,0.0339617,VALID,18.2602,VALID,137,VALID,1.19141,
2008-08-04, 02:38:00,VALID,917.203,VALID,0,VALID,100,VALID,0.0339617,VALID,18.2542,VALID,136,VALID,1.18496,
2008-08-04, 02:39:00,VALID,917.192,VALID,0,VALID,100,VALID,0,VALID,18.2442,VALID,133,VALID,0.770508,
2008-08-04, 02:40:00,VALID,917.184,VALID,0,VALID,100,VALID,0.0339617,VALID,18.231,VALID,136,VALID,0.177871,
2008-08-04, 02:41:00,VALID,917.164,VALID,0,VALID,100,VALID,0,VALID,18.2243,VALID,134,VALID,0.606534,
2008-08-04, 02:42:00,VALID,917.162,VALID,0,VALID,100,VALID,0.0849042,VALID,18.2046,VALID,128,VALID,0.675876,
2008-08-04, 02:43:00,VALID,917.158,VALID,0,VALID,100,VALID,0.0169808,VALID,18.1761,VALID,125,VALID,0.71968,
2008-08-04, 02:44:00,VALID,917.161,VALID,0,VALID,100,VALID,0,VALID,18.1272,VALID,129,VALID,0.725,
2008-08-04, 02:45:00,VALID,917.175,VALID,0,VALID,100,VALID,0,VALID,18.0983,VALID,136,VALID,0.982777,
2008-08-04, 02:46:00,VALID,917.184,VALID,0,VALID,100,VALID,0,VALID,18.0754,VALID,155,VALID,0.818824,
2008-08-04, 02:47:00,VALID,917.208,VALID,0,VALID,100,VALID,0.0509425,VALID,18.0557,VALID,164,VALID,0.974964,
2008-08-04, 02:48:00,VALID,917.222,VALID,0,VALID,100,VALID,0.0169808,VALID,18.0496,VALID,148,VALID,0.868641,
2008-08-04, 02:49:00,VALID,917.219,VALID,0,VALID,100,VALID,-0.0339617,VALID,18.0406,VALID,146,VALID,0.616425,
2008-08-04, 02:50:00,VALID,917.223,VALID,0,VALID,100,VALID,-0.101885,VALID,18.0408,VALID,138,VALID,0.466388,
2008-08-04, 02:51:00,VALID,917.209,VALID,0,VALID,100,VALID,-0.0679233,VALID,18.0306,VALID,119,VALID,0.6875,
2008-08-04, 02:52:00,VALID,917.196,VALID,0,VALID,100,VALID,-0.0679233,VALID,18.0116,VALID,125,VALID,0.679865,
2008-08-04, 02:53:00,VALID,917.191,VALID,0,VALID,100,VALID,-0.0339617,VALID,17.9954,VALID,139,VALID,0.819949,
2008-08-04, 02:54:00,VALID,917.177,VALID,0,VALID,100,VALID,-0.0679233,VALID,17.9952,VALID,141,VALID,1.11083,
2008-08-04, 02:55:00,VALID,917.165,VALID,0,VALID,100,VALID,-0.0849042,VALID,17.9922,VALID,146,VALID,0.804688,
2008-08-04, 02:56:00,VALID,917.157,VALID,0,VALID,100,VALID,-0.0849042,VALID,17.9757,VALID,131,VALID,0.842507,
2008-08-04, 02:57:00,VALID,917.135,VALID,0,VALID,100,VALID,-0.0679233,VALID,17.9632,VALID,126,VALID,1.14304,
2008-08-04, 02:58:00,VALID,917.128,VALID,0,VALID,100,VALID,-0.0679233,VALID,17.9276,VALID,129,VALID,0.90718,
2008-08-04, 02:59:00,VALID,917.106,VALID,0,VALID,100,VALID,-0.0679233,VALID,17.9051,VALID,127,VALID,1.03678,
2008-08-04, 03:00:00,VALID,917.099,VALID,0,VALID,100,VALID,-0.0679233,VALID,17.8817,VALID,131,VALID,1.12573,
2008-08-04, 03:01:00,VALID,917.093,VALID,0,VALID,100,VALID,-0.0509425,VALID,17.8657,VALID,144,VALID,0.904119,
2008-08-04, 03:02:00,VALID,917.104,VALID,0,VALID,100,VALID,-0.101885,VALID,17.8657,VALID,140,VALID,1.11541,
2008-08-04, 03:03:00,VALID,917.133,VALID,0,VALID,100,VALID,-0.0679233,VALID,17.8687,VALID,130,VALID,0.841273,
2008-08-04, 03:04:00,VALID,917.148,VALID,0,VALID,100,VALID,-0.0849042,VALID,17.8852,VALID,145,VALID,1.05673,
2008-08-04, 03:05:00,VALID,917.173,VALID,0,VALID,100,VALID,-0.0849042,VALID,17.888,VALID,135,VALID,1.27191,
2008-08-04, 03:06:00,VALID,917.184,VALID,0,VALID,100,VALID,-0.0679233,VALID,17.8949,VALID,136,VALID,1.07069,
2008-08-04, 03:07:00,VALID,917.177,VALID,0,VALID,100,VALID,-0.0849042,VALID,17.8815,VALID,145,VALID,1.21075,
2008-08-04, 03:08:00,VALID,917.161,VALID,0,VALID,100,VALID,-0.0679233,VALID,17.9044,VALID,147,VALID,0.916016,
2008-08-04, 03:09:00,VALID,917.152,VALID,0,VALID,100,VALID,-0.0849042,VALID,17.9111,VALID,154,VALID,1.23323,
2008-08-04, 03:10:00,VALID,917.149,VALID,0,VALID,100,VALID,-0.0849042,VALID,17.9172,VALID,150,VALID,0.824929,
2008-08-04, 03:11:00,VALID,917.138,VALID,0,VALID,100,VALID,-0.118866,VALID,17.9211,VALID,148,VALID,0.608008,
2008-08-04, 03:12:00,VALID,917.123,VALID,0,VALID,100,VALID,-0.0849042,VALID,17.9338,VALID,136,VALID,0.667969,
2008-08-04, 03:13:00,VALID,917.124,VALID,0,VALID,100,VALID,-0.0849042,VALID,17.9144,VALID,128,VALID,0.998666,
2008-08-04, 03:14:00,VALID,917.122,VALID,0,VALID,100,VALID,-0.0849042,VALID,17.9083,VALID,123,VALID,1.04611,
2008-08-04, 03:15:00,VALID,917.141,VALID,0,VALID,100,VALID,-0.0849042,VALID,17.8752,VALID,125,VALID,0.64335,
2008-08-04, 03:16:00,VALID,917.151,VALID,0,VALID,100,VALID,-0.101885,VALID,17.862,VALID,133,VALID,0.711128,
2008-08-04, 03:17:00,VALID,917.151,VALID,0,VALID,100,VALID,-0.101885,VALID,17.843,VALID,132,VALID,0.798874,
2008-08-04, 03:18:00,VALID,917.146,VALID,0,VALID,100,VALID,-0.118866,VALID,17.8333,VALID,138,VALID,1.16908,
2008-08-04, 03:19:00,VALID,917.144,VALID,0,VALID,100,VALID,-0.101885,VALID,17.8238,VALID,138,VALID,1.19245,
2008-08-04, 03:20:00,VALID,917.146,VALID,0,VALID,100,VALID,-0.0679233,VALID,17.8138,VALID,137,VALID,1.36192,
2008-08-04, 03:21:00,VALID,917.14,VALID,0,VALID,100,VALID,-0.0849042,VALID,17.8037,VALID,138,VALID,1.52951,
2008-08-04, 03:22:00,VALID,917.13,VALID,0,VALID,100,VALID,-0.0849042,VALID,17.8104,VALID,135,VALID,1.39644,
2008-08-04, 03:23:00,VALID,917.118,VALID,0,VALID,100,VALID,-0.0849042,VALID,17.8006,VALID,135,VALID,1.12624,
2008-08-04, 03:24:00,VALID,917.097,VALID,0,VALID,100,VALID,-0.0679233,VALID,17.7907,VALID,133,VALID,0.743278,
2008-08-04, 03:25:00,VALID,917.104,VALID,0,VALID,100,VALID,-0.0339617,VALID,17.7712,VALID,135,VALID,0.773247,
2008-08-04, 03:26:00,VALID,917.106,VALID,0,VALID,100,VALID,-0.0509425,VALID,17.7682,VALID,139,VALID,0.776296,
2008-08-04, 03:27:00,VALID,917.107,VALID,0,VALID,100,VALID,-0.0509425,VALID,17.7453,VALID,131,VALID,0.796689,
2008-08-04, 03:28:00,VALID,917.118,VALID,0,VALID,100,VALID,-0.101885,VALID,17.739,VALID,129,VALID,0.62609,
2008-08-04, 03:29:00,VALID,917.119,VALID,0,VALID,100,VALID,-0.0509425,VALID,17.7006,VALID,130,VALID,0.64939,
2008-08-04, 03:30:00,VALID,917.123,VALID,0,VALID,100,VALID,-0.0339617,VALID,17.6675,VALID,139,VALID,0.188194,
2008-08-04, 03:31:00,VALID,917.125,VALID,0,VALID,100,VALID,-0.0339617,VALID,17.6642,VALID,136,VALID,0.21684,
2008-08-04, 03:32:00,VALID,917.113,VALID,0,VALID,100,VALID,-0.0679233,VALID,17.6547,VALID,134,VALID,0.200267,
2008-08-04, 03:33:00,VALID,917.101,VALID,0,VALID,100,VALID,-0.0849042,VALID,17.6353,VALID,134,VALID,0,
2008-08-04, 03:34:00,VALID,917.085,VALID,0,VALID,100,VALID,-0.0679233,VALID,17.6156,VALID,134,VALID,0,
2008-08-04, 03:35:00,VALID,917.061,VALID,0,VALID,100,VALID,-0.0849042,VALID,17.5765,VALID,134,VALID,0,
2008-08-04, 03:36:00,VALID,917.034,VALID,0,VALID,100,VALID,-0.0339617,VALID,17.5542,VALID,134,VALID,0,
2008-08-04, 03:37:00,VALID,917.012,VALID,0,VALID,100,VALID,-0.0509425,VALID,17.5408,VALID,134,VALID,0,
2008-08-04, 03:38:00,VALID,916.972,VALID,0,VALID,100,VALID,-0.0509425,VALID,17.5214,VALID,134,VALID,0,
2008-08-04, 03:39:00,VALID,916.957,VALID,0,VALID,100,VALID,-0.0509425,VALID,17.5086,VALID,134,VALID,0,
2008-08-04, 03:40:00,VALID,916.938,VALID,0,VALID,100,VALID,-0.0509425,VALID,17.5119,VALID,134,VALID,0,
2008-08-04, 03:41:00,VALID,916.923,VALID,0,VALID,100,VALID,-0.118866,VALID,17.5216,VALID,134,VALID,0,
2008-08-04, 03:42:00,VALID,916.92,VALID,0,VALID,100,VALID,-0.0339617,VALID,17.4535,VALID,134,VALID,0,